N7WDZ-WX Weather Reports


time (UTC)temp
C
wind
direction
speed
KPH
gust
KPH
rain 1hr
cm
rain 24hr
cm
rain mn
cm
humidity
%
barometer
mb
20260506192038 26 68 1.6 9.7 0.00 0.00 0.00 25 1015.7
20260506191553 25 0 0.0 9.7 0.00 0.00 0.00 25 1015.8
20260506191039 25 0 0.0 9.7 0.00 0.00 0.00 25 1015.9
20260506190539 25 0 0.0 11.3 0.00 0.00 0.00 25 1015.9
20260506190053 25 54 1.6 11.3 0.00 0.00 0.00 25 1016.0
20260506185542 25 111 0.0 12.9 0.00 0.00 0.00 26 1016.1
20260506185038 24 167 1.6 16.1 0.00 0.00 0.00 26 1016.0
20260506184554 24 91 9.7 17.7 0.00 0.00 0.00 26 1016.1
20260506184040 24 90 3.2 17.7 0.00 0.00 0.00 26 1016.1
20260506183545 24 60 6.4 17.7 0.00 0.00 0.00 26 1016.1
20260506183100 25 105 4.8 19.3 0.00 0.00 0.00 26 1016.1
20260506182541 24 105 4.8 19.3 0.00 0.00 0.00 26 1016.1
20260506182042 24 0 0.0 12.9 0.00 0.00 0.00 26 1016.1
20260506181555 24 0 1.6 12.9 0.00 0.00 0.00 26 1016.0
20260506181039 24 136 3.2 12.9 0.00 0.00 0.00 27 1016.0
20260506180543 23 159 3.2 16.1 0.00 0.00 0.00 27 1016.1
20260506180054 23 136 9.7 16.1 0.00 0.00 0.00 27 1016.1
20260506175538 23 0 1.6 11.3 0.00 0.00 0.00 27 1016.1
20260506175042 23 72 0.0 11.3 0.00 0.00 0.00 28 1016.0
20260506174551 23 131 3.2 11.3 0.00 0.00 0.00 28 1016.1
20260506174038 23 0 1.6 14.5 0.00 0.00 0.00 28 1016.1
20260506173539 23 0 4.8 14.5 0.00 0.00 0.00 26 1016.2
20260506173048 23 37 6.4 14.5 0.00 0.00 0.00 27 1016.1
20260506172538 23 82 4.8 17.7 0.00 0.00 0.00 27 1016.0
20260506172041 23 360 9.7 19.3 0.00 0.00 0.00 27 1016.0
20260506171549 23 0 3.2 19.3 0.00 0.00 0.00 27 1016.0
20260506171038 23 345 6.4 19.3 0.00 0.00 0.00 27 1016.0
20260506170540 23 304 6.4 22.5 0.00 0.00 0.00 28 1016.0
20260506170054 23 318 8.0 22.5 0.00 0.00 0.00 28 1015.8
20260506165541 23 333 9.7 20.9 0.00 0.00 0.00 28 1015.9
20260506165039 23 333 9.7 20.9 0.00 0.00 0.00 28 1015.8
20260506164555 22 27 11.3 24.1 0.00 0.00 0.00 28 1015.8
20260506164039 22 302 11.3 24.1 0.00 0.00 0.00 28 1015.8
20260506163538 22 318 11.3 19.3 0.00 0.00 0.00 28 1015.8
20260506163051 22 326 9.7 19.3 0.00 0.00 0.00 27 1015.7
20260506162541 22 345 4.8 20.9 0.00 0.00 0.00 28 1015.7
20260506162041 22 330 9.7 20.9 0.00 0.00 0.00 28 1015.7
20260506161554 22 21 8.0 19.3 0.00 0.00 0.00 28 1015.6
20260506161038 22 23 11.3 19.3 0.00 0.00 0.00 28 1015.6
20260506160540 22 323 8.0 20.9 0.00 0.00 0.00 28 1015.6
20260506160055 21 269 6.4 22.5 0.00 0.00 0.00 28 1015.7
20260506155538 21 11 11.3 22.5 0.00 0.00 0.00 29 1015.6
20260506155038 20 0 3.2 11.3 0.00 0.00 0.00 33 1015.7
20260506154552 20 82 6.4 14.5 0.00 0.00 0.00 35 1015.7
20260506154038 20 23 4.8 14.5 0.00 0.00 0.00 33 1015.6
20260506153544 20 65 3.2 14.5 0.00 0.00 0.00 34 1015.6
20260506153045 19 34 4.8 14.5 0.00 0.00 0.00 35 1015.6
20260506152538 19 75 6.4 14.5 0.00 0.00 0.00 36 1015.5
20260506152038 19 74 1.6 14.5 0.00 0.00 0.00 36 1015.5
20260506151554 19 60 4.8 16.1 0.00 0.00 0.00 37 1015.4
20260506151038 19 0 8.0 16.1 0.00 0.00 0.00 34 1015.4
20260506150544 18 84 8.0 16.1 0.00 0.00 0.00 36 1015.4
20260506150056 18 65 8.0 16.1 0.00 0.00 0.00 37 1015.4
20260506145539 18 44 3.2 11.3 0.00 0.00 0.00 38 1015.4
20260506145039 18 67 0.0 11.3 0.00 0.00 0.00 39 1015.4
20260506144544 17 90 1.6 8.0 0.00 0.00 0.00 40 1015.3
20260506144040 17 53 1.6 8.0 0.00 0.00 0.00 39 1015.3
20260506143540 17 41 1.6 8.0 0.00 0.00 0.00 39 1015.2
20260506143050 17 41 1.6 11.3 0.00 0.00 0.00 38 1015.2
20260506142540 17 0 0.0 16.1 0.00 0.00 0.00 35 1015.1
20260506142040 17 25 6.4 20.9 0.00 0.00 0.00 34 1015.1
20260506141552 17 38 11.3 20.9 0.00 0.00 0.00 34 1015.0
20260506141039 17 32 4.8 11.3 0.00 0.00 0.00 35 1014.9
20260506140538 17 31 0.0 11.3 0.00 0.00 0.00 35 1014.9
20260506140052 16 335 1.6 12.9 0.00 0.00 0.00 35 1014.9
20260506135540 16 25 6.4 12.9 0.00 0.00 0.00 35 1014.9
20260506135038 16 0 4.8 12.9 0.00 0.00 0.00 35 1014.8
20260506134554 16 20 4.8 14.5 0.00 0.00 0.00 36 1014.8
20260506134042 16 51 8.0 14.5 0.00 0.00 0.00 35 1014.7
20260506133539 16 33 8.0 14.5 0.00 0.00 0.00 36 1014.6
20260506133059 16 40 4.8 14.5 0.00 0.00 0.00 35 1014.5
20260506132539 16 335 3.2 11.3 0.00 0.00 0.00 35 1014.4
20260506132043 16 4 1.6 11.3 0.00 0.00 0.00 35 1014.4
20260506131606 16 330 3.2 11.3 0.00 0.00 0.00 35 1014.3
20260506131039 16 320 4.8 11.3 0.00 0.00 0.00 35 1014.2
20260506130541 16 345 3.2 12.9 0.00 0.00 0.00 35 1014.1
20260506130053 16 335 4.8 12.9 0.00 0.00 0.00 35 1014.1
20260506125540 16 328 6.4 12.9 0.00 0.00 0.00 35 1014.0
20260506125040 16 0 6.4 12.9 0.00 0.00 0.00 36 1013.9
20260506124552 16 337 6.4 12.9 0.00 0.00 0.00 36 1013.9
20260506124045 16 360 3.2 11.3 0.00 0.00 0.00 36 1013.8
20260506123542 16 13 1.6 9.7 0.00 0.00 0.00 36 1013.8
20260506123049 16 10 4.8 11.3 0.00 0.00 0.00 36 1013.7
20260506122540 16 307 4.8 12.9 0.00 0.00 0.00 36 1013.7
20260506122040 16 25 4.8 12.9 0.00 0.00 0.00 35 1013.6
20260506121556 16 18 3.2 16.1 0.00 0.00 0.00 35 1013.6
20260506121040 16 347 6.4 16.1 0.00 0.00 0.00 35 1013.7
20260506120540 16 297 4.8 11.3 0.00 0.00 0.00 35 1013.6
20260506115539 16 354 3.2 14.5 0.00 0.00 0.00 35 1013.6
20260506115040 16 356 4.8 14.5 0.00 0.00 0.00 36 1013.5
20260506114555 15 4 6.4 11.3 0.00 0.00 0.00 36 1013.5
20260506114041 15 23 3.2 9.7 0.00 0.00 0.00 37 1013.5
20260506113538 15 27 1.6 8.0 0.00 0.00 0.00 37 1013.4
20260506113050 15 0 0.0 6.4 0.00 0.00 0.00 37 1013.4
20260506112540 15 0 0.0 8.0 0.00 0.00 0.00 38 1013.4
20260506112038 14 0 1.6 11.3 0.00 0.00 0.00 38 1013.4
20260506111551 14 349 1.6 11.3 0.00 0.00 0.00 39 1013.4
20260506111041 14 0 0.0 0.0 0.00 0.00 0.00 40 1013.3
20260506110538 14 0 0.0 0.0 0.00 0.00 0.00 41 1013.3
20260506110100 14 0 0.0 0.0 0.00 0.00 0.00 40 1013.1
20260506105538 14 0 0.0 0.0 0.00 0.00 0.00 40 1013.1
20260506105042 14 0 0.0 0.0 0.00 0.00 0.00 40 1013.0
20260506104558 14 0 0.0 4.8 0.00 0.00 0.00 40 1013.0
20260506104039 14 0 0.0 4.8 0.00 0.00 0.00 40 1013.0
20260506103541 14 0 0.0 4.8 0.00 0.00 0.00 40 1013.0
20260506103048 14 0 0.0 1.6 0.00 0.00 0.00 39 1012.9
20260506102539 14 0 0.0 1.6 0.00 0.00 0.00 39 1012.9
20260506102042 15 0 0.0 0.0 0.00 0.00 0.00 39 1012.8
20260506101554 15 0 0.0 0.0 0.00 0.00 0.00 39 1012.6
20260506101038 15 0 0.0 0.0 0.00 0.00 0.00 39 1012.5
20260506100538 15 0 0.0 0.0 0.00 0.00 0.00 39 1012.5
20260506095538 15 0 0.0 0.0 0.00 0.00 0.00 39 1012.3
20260506095039 15 0 0.0 0.0 0.00 0.00 0.00 39 1012.2
20260506094556 14 0 0.0 0.0 0.00 0.00 0.00 39 1012.2
20260506094040 15 0 0.0 0.0 0.00 0.00 0.00 39 1012.1
20260506093541 15 0 0.0 0.0 0.00 0.00 0.00 38 1012.1
20260506093051 15 0 0.0 0.0 0.00 0.00 0.00 38 1012.1
20260506092539 15 0 0.0 0.0 0.00 0.00 0.00 38 1012.0
20260506092041 15 0 0.0 0.0 0.00 0.00 0.00 37 1012.0
20260506091546 15 0 0.0 0.0 0.00 0.00 0.00 37 1012.0
20260506091039 15 0 0.0 0.0 0.00 0.00 0.00 37 1012.0
20260506090540 15 0 0.0 1.6 0.00 0.00 0.00 37 1012.1
20260506090051 15 0 0.0 1.6 0.00 0.00 0.00 37 1012.0
20260506085539 15 0 0.0 0.0 0.00 0.00 0.00 37 1012.0
20260506085040 16 0 0.0 0.0 0.00 0.00 0.00 37 1012.1
20260506084617 16 0 0.0 0.0 0.00 0.00 0.00 36 1012.1
20260506084040 16 0 0.0 0.0 0.00 0.00 0.00 36 1012.1
20260506083540 16 0 0.0 0.0 0.00 0.00 0.00 36 1012.1
20260506083051 16 0 0.0 0.0 0.00 0.00 0.00 36 1012.1
20260506082541 17 0 0.0 0.0 0.00 0.00 0.00 36 1012.0
20260506082040 17 0 0.0 6.4 0.00 0.00 0.00 35 1012.1
20260506081556 17 0 0.0 8.0 0.00 0.00 0.00 34 1012.0
20260506081040 18 0 0.0 9.7 0.00 0.00 0.00 32 1012.1
20260506080540 18 273 4.8 9.7 0.00 0.00 0.00 32 1012.0
20260506073046 18 341 0.0 6.4 0.00 0.00 0.00 30 1011.9
20260506072540 18 0 3.2 6.4 0.00 0.00 0.00 30 1011.9
20260506072042 18 290 3.2 6.4 0.00 0.00 0.00 30 1011.9
20260506071554 18 0 0.0 6.4 0.00 0.00 0.00 30 1011.9
20260506071040 18 323 1.6 6.4 0.00 0.00 0.00 30 1011.9
20260506070540 18 315 1.6 6.4 0.00 0.00 0.00 30 1011.9
20260506062040 19 0 0.0 1.6 0.00 0.00 0.00 30 1011.7
20260506061555 19 0 0.0 0.0 0.00 0.00 0.00 30 1011.6
20260506061041 19 0 0.0 4.8 0.00 0.00 0.00 30 1011.5
20260506060540 19 0 0.0 4.8 0.00 0.00 0.00 30 1011.5
20260506051040 19 0 0.0 0.0 0.00 0.00 0.00 32 1011.1
20260506050540 19 0 0.0 0.0 0.00 0.00 0.00 32 1011.0
20260506045039 20 0 0.0 0.0 0.00 0.00 0.00 32 1010.9
20260506044547 20 0 0.0 0.0 0.00 0.00 0.00 33 1010.8
20260506044045 20 0 0.0 0.0 0.00 0.00 0.00 33 1010.7
20260506043540 20 0 0.0 0.0 0.00 0.00 0.00 33 1010.6
20260506043052 20 0 0.0 0.0 0.00 0.00 0.00 33 1010.7
20260506042540 20 0 0.0 0.0 0.00 0.00 0.00 33 1010.6
20260506042041 20 0 0.0 0.0 0.00 0.00 0.00 33 1010.5
20260506041604 20 0 0.0 0.0 0.00 0.00 0.00 32 1010.4
20260506041040 20 0 0.0 0.0 0.00 0.00 0.00 31 1010.4
20260506040540 20 0 0.0 0.0 0.00 0.00 0.00 31 1010.3
20260506040052 20 0 0.0 0.0 0.00 0.00 0.00 31 1010.1
20260506035540 21 0 0.0 4.8 0.00 0.00 0.00 31 1010.1
20260506035040 21 0 0.0 4.8 0.00 0.00 0.00 30 1010.0
20260506034550 21 0 0.0 6.4 0.00 0.00 0.00 30 1009.9
20260506034043 21 0 0.0 6.4 0.00 0.00 0.00 30 1009.8
20260506033539 21 0 0.0 4.8 0.00 0.00 0.00 30 1009.6
20260506033052 21 0 0.0 6.4 0.00 0.00 0.00 30 1009.6
20260506032541 21 0 0.0 6.4 0.00 0.00 0.00 30 1009.5
20260506032041 21 0 0.0 4.8 0.00 0.00 0.00 29 1009.4
20260506031554 21 0 0.0 0.0 0.00 0.00 0.00 29 1009.3
20260506031040 21 0 0.0 3.2 0.00 0.00 0.00 29 1009.3
20260506030544 21 0 0.0 12.9 0.00 0.00 0.00 29 1009.1
20260506030052 21 0 0.0 14.5 0.00 0.00 0.00 28 1009.1
20260506025540 21 0 3.2 14.5 0.00 0.00 0.00 28 1009.0
20260506025042 22 0 0.0 11.3 0.00 0.00 0.00 27 1008.9
20260506024545 22 186 3.2 11.3 0.00 0.00 0.00 26 1008.9
20260506024040 22 169 4.8 11.3 0.00 0.00 0.00 26 1008.8
20260506023540 22 155 3.2 9.7 0.00 0.00 0.00 25 1008.8
20260506023103 22 0 1.6 11.3 0.00 0.00 0.00 25 1008.7
20260506022540 22 148 1.6 12.9 0.00 0.00 0.00 24 1008.7
20260506022040 22 172 1.6 12.9 0.00 0.00 0.00 24 1008.7
20260506021608 22 177 0.0 11.3 0.00 0.00 0.00 23 1008.7
20260506021044 22 201 4.8 11.3 0.00 0.00 0.00 23 1008.6
20260506020539 23 207 0.0 12.9 0.00 0.00 0.00 23 1008.5
20260506020050 23 193 4.8 14.5 0.00 0.00 0.00 23 1008.5
20260506015541 23 137 3.2 14.5 0.00 0.00 0.00 22 1008.4
20260506015044 23 194 3.2 12.9 0.00 0.00 0.00 21 1008.4
20260506014545 23 180 3.2 11.3 0.00 0.00 0.00 21 1008.4
20260506014045 23 0 4.8 11.3 0.00 0.00 0.00 21 1008.3
20260506013543 23 167 1.6 9.7 0.00 0.00 0.00 21 1008.2
20260506013057 23 0 1.6 11.3 0.00 0.00 0.00 21 1008.3
20260506012540 23 0 0.0 11.3 0.00 0.00 0.00 21 1008.4
20260506012041 23 0 3.2 12.9 0.00 0.00 0.00 22 1008.3
20260506011551 23 159 4.8 12.9 0.00 0.00 0.00 21 1008.3
20260506011040 23 154 4.8 12.9 0.00 0.00 0.00 21 1008.4
20260506010540 23 173 0.0 11.3 0.00 0.00 0.00 21 1008.2
20260506010057 23 127 1.6 11.3 0.00 0.00 0.00 21 1008.2
20260506005543 24 113 0.0 8.0 0.00 0.00 0.00 20 1008.2
20260506005039 24 0 0.0 12.9 0.00 0.00 0.00 21 1008.1
20260506004548 24 0 1.6 12.9 0.00 0.00 0.00 21 1008.2
20260506004040 23 174 1.6 8.0 0.00 0.00 0.00 22 1008.2
20260506003540 23 0 0.0 14.5 0.00 0.00 0.00 21 1008.1
20260506003047 23 0 3.2 16.1 0.00 0.00 0.00 21 1008.1
20260506002540 23 189 4.8 16.1 0.00 0.00 0.00 22 1008.1
20260506002041 23 160 6.4 14.5 0.00 0.00 0.00 21 1008.1
20260506001547 23 127 3.2 9.7 0.00 0.00 0.00 21 1008.1
20260506001041 23 0 0.0 9.7 0.00 0.00 0.00 22 1008.1
20260506000544 23 132 1.6 11.3 0.00 0.00 0.00 22 1008.0
20260506000054 23 0 1.6 11.3 0.00 0.00 0.00 22 1008.1
20260505235539 23 9 0.0 11.3 0.00 0.00 0.00 22 1008.0
20260505235040 23 28 3.2 11.3 0.00 0.00 0.00 22 1008.1
20260505234545 23 0 1.6 12.9 0.00 0.00 0.00 21 1008.0
20260505234041 23 138 0.0 12.9 0.00 0.00 0.00 21 1008.0
20260505233540 23 262 4.8 12.9 0.00 0.00 0.00 21 1008.0
20260505233050 23 0 0.0 9.7 0.00 0.00 0.00 21 1008.1
20260505232541 23 126 1.6 9.7 0.00 0.00 0.00 22 1008.1
20260505232044 23 0 0.0 9.7 0.00 0.00 0.00 22 1008.0
20260505231606 23 148 1.6 9.7 0.00 0.00 0.00 22 1008.0
20260505231040 23 138 0.0 9.7 0.00 0.00 0.00 23 1008.1
20260505230658 23 79 0.0 12.9 0.00 0.00 0.00 23 1008.3
20260505230048 22 91 3.2 17.7 0.00 0.00 0.00 23 1008.4
20260505225610 22 86 6.4 17.7 0.00 0.00 0.00 23 1008.5
20260505225040 22 73 0.0 20.9 0.00 0.00 0.00 23 1008.5
20260505224554 22 0 9.7 20.9 0.00 0.00 0.00 23 1008.7
20260505224039 22 65 8.0 19.3 0.00 0.00 0.00 23 1008.6
20260505223539 22 85 6.4 19.3 0.00 0.00 0.00 23 1008.7
20260505223054 22 82 6.4 19.3 0.00 0.00 0.00 23 1008.8
20260505222545 22 0 1.6 14.5 0.00 0.00 0.00 23 1008.8
20260505222040 22 71 8.0 14.5 0.00 0.00 0.00 22 1008.9
20260505221550 23 105 4.8 12.9 0.00 0.00 0.00 22 1008.9
20260505221041 23 142 3.2 11.3 0.00 0.00 0.00 22 1009.1
20260505220540 23 154 1.6 11.3 0.00 0.00 0.00 23 1009.1
20260505220058 23 124 1.6 19.3 0.00 0.00 0.00 23 1009.2
20260505215541 23 113 0.0 19.3 0.00 0.00 0.00 23 1009.2
20260505215040 23 228 6.4 17.7 0.00 0.00 0.00 23 1009.3
20260505214557 22 219 0.0 14.5 0.00 0.00 0.00 24 1009.2
20260505214040 22 0 4.8 14.5 0.00 0.00 0.00 24 1009.2
20260505213540 22 102 4.8 19.3 0.00 0.00 0.00 23 1009.4
20260505213052 22 106 9.7 19.3 0.00 0.00 0.00 24 1009.4
20260505212539 22 92 3.2 17.7 0.00 0.00 0.00 24 1009.4
20260505212041 22 0 1.6 19.3 0.00 0.00 0.00 24 1009.5
20260505211554 22 120 4.8 19.3 0.00 0.00 0.00 25 1009.6
20260505211043 22 108 8.0 17.7 0.00 0.00 0.00 25 1009.6
20260505210539 22 156 4.8 11.3 0.00 0.00 0.00 25 1009.8
20260505210051 22 110 3.2 17.7 0.00 0.00 0.00 25 1009.8
20260505205541 22 142 3.2 19.3 0.00 0.00 0.00 25 1009.8
20260505205041 22 197 8.0 19.3 0.00 0.00 0.00 24 1009.9
20260505204550 22 148 0.0 8.0 0.00 0.00 0.00 26 1009.9
20260505204041 22 0 0.0 9.7 0.00 0.00 0.00 25 1009.9
20260505203543 22 0 3.2 12.9 0.00 0.00 0.00 25 1010.0
20260505203106 22 0 3.2 19.3 0.00 0.00 0.00 25 1009.9
20260505202540 22 231 4.8 19.3 0.00 0.00 0.00 25 1009.9
20260505202040 21 149 4.8 19.3 0.00 0.00 0.00 27 1009.9
20260505201554 21 172 8.0 17.7 0.00 0.00 0.00 27 1009.9
20260505201040 21 115 8.0 17.7 0.00 0.00 0.00 27 1009.9
20260505200540 21 156 6.4 16.1 0.00 0.00 0.00 27 1010.0
20260505200053 21 158 6.4 43.5 0.00 0.00 0.00 28 1010.0
20260505195542 21 145 8.0 43.5 0.00 0.00 0.00 28 1010.1
20260505195039 21 197 3.2 20.9 0.00 0.00 0.00 28 1010.2
20260505194553 21 0 1.6 20.9 0.00 0.00 0.00 27 1010.3
20260505194040 21 155 6.4 19.3 0.00 0.00 0.00 28 1010.3
20260505193540 21 191 6.4 24.1 0.00 0.00 0.00 28 1010.3
20260505193051 21 0 9.7 24.1 0.00 0.00 0.00 28 1010.4
20260505192540 21 158 0.0 17.7 0.00 0.00 0.00 29 1010.4